Vorticity
8 7 7 7 7 7 8 8 9 8 9 9 5 6 8 7 2 3 4 9 8 8 8 12 11 10 8 4 15 10 -13 11 -1 -6 10 -4 13 5 9 5 -2 -3 4 10 12
11 11 11 11 11 9 8 6 5 7 8 8 8 6 0 5 8 1 3 4 9 10 8 11 17 9 7 10 11 8 -1 2 17 4 -4 -22 5 10 6 4 7 2 7 1 10
6 6 6 5 5 4 5 7 9 7 6 5 6 7 9 6 4 6 0 4 10 13 11 9 15 8 5 6 10 4 4 -24 5 11 9 17 9 9 11 11 -0 4 6 8 3
6 6 6 5 6 5 5 5 7 6 6 7 7 7 7 7 11 21 30 22 18 12 12 8 8 4 8 -1 14 3 1 12 21 3 2 8 10 -1 2 10 8 2 -5 18 8
6 6 5 6 7 8 9 10 10 10 7 7 8 8 9 7 3 -10 -16 -1 16 17 17 13 10 11 1 22 8 16 2 18 -15 3 -1 -0 14 9 5 8 16 15 8 7 9
6 6 7 8 10 11 11 12 13 13 15 13 11 12 12 1 9 10 7 9 -6 -9 -1 23 9 10 11 -11 15 38 23 -10 22 5 14 3 0 4 2 2 -4 8 8 7 8
6 7 10 11 10 11 13 13 15 15 14 12 13 17 11 16 2 5 16 19 7 13 2 16 12 11 -13 26 -14 8 -8 11 12 -1 13 8 9 7 5 7 9 -1 2 3 2
8 10 11 9 11 12 12 13 15 17 17 18 16 16 13 7 18 13 5 1 15 16 9 11 16 16 4 -9 34 9 10 -3 5 -10 3 7 7 27 14 9 2 6 4 -0 3
11 10 13 11 13 16 18 17 19 20 15 18 14 14 29 20 30 43 9 4 5 12 19 10 10 7 9 -10 -5 31 -0 5 7 4 6 -4 18 13 34 -3 4 6 13 4 9
11 14 14 17 19 17 12 11 16 17 19 19 24 22 -2 -14 2 30 31 5 9 6 8 7 11 1 -6 -1 1 -6 8 5 21 -2 5 12 2 -14 25 18 4 1 2 6 14
12 15 15 14 11 11 10 13 19 30 20 14 4 10 -38 17 17 19 17 26 2 12 6 7 9 9 -4 -5 22 19 6 2 3 -4 18 1 2 -2 7 6 12 14 9 2 8
15 14 10 8 9 8 17 11 11 6 3 12 6 13 33 -3 6 35 -8 20 8 11 -0 22 5 0 28 1 7 -1 -4 -5 14 15 -2 16 9 3 10 6 7 9 3 9 13
12 11 8 10 8 14 15 16 11 3 9 14 41 34 26 24 25 0 -1 45 24 11 13 1 17 1 8 5 7 0 -5 -5 -15 18 30 39 20 4 3 8 15 6 2 9 3
8 9 7 8 16 12 14 13 11 15 30 30 7 -2 18 32 24 -12 22 13 -0 -1 2 0 -26 40 -7 10 21 12 5 -2 -9 14 -8 9 13 24 21 19 6 24 5 5 2
11 10 9 11 12 13 9 12 13 16 15 -4 -9 9 41 11 29 59 5 -30 23 24 -21 12 34 8 22 -9 4 13 15 12 -6 5 0 8 -5 49 19 -1 28 23 26 2 5
15 13 13 13 15 13 11 9 9 17 2 19 6 -2 12 46 32 -1 32 16 40 22 30 -17 9 -11 10 28 15 -6 10 2 12 24 9 -9 -16 27 15 22 3 24 25 18 12
21 16 11 13 13 13 13 11 24 8 -20 -3 0 3 19 20 20 18 -11 12 -28 17 39 14 3 30 -1 21 2 4 11 15 17 11 2 40 32 -42 38 13 20 6 29 26 13
17 15 13 18 13 11 13 13 16 -17 5 5 13 33 20 19 45 6 6 14 9 -38 51 15 42 -12 39 3 21 10 -11 2 6 8 21 -34 19 27 67 3 24 9 3 14 27
13 13 18 13 5 9 8 17 6 -6 -6 6 23 22 4 7 40 34 17 9 -13 17 6 20 -8 22 21 9 13 29 -3 -29 -6 13 -2 6 35 -6 -16 0 -14 3 14 13 17
11 15 13 7 10 7 13 16 5 17 6 12 23 3 3 1 21 20 1 56 0 5 -9 34 5 42 37 10 16 10 -1 -1 8 5 8 32 3 -28 25 8 14 -1 8 8 10
13 17 11 8 12 15 9 6 13 5 7 6 5 11 12 5 17 28 -4 5 30 36 10 -12 3 26 18 26 5 9 20 5 1 0 11 9 16 26 16 27 20 12 17 4 6
14 25 9 14 21 14 7 12 16 14 28 11 11 -1 5 4 12 31 1 3 11 12 32 -25 17 19 15 -14 19 -3 26 -6 -32 25 -5 3 7 38 30 16 16 39 9 17 16
14 17 13 -1 9 3 17 13 18 26 11 3 6 17 1 9 21 6 12 10 10 20 18 46 34 1 29 -8 31 15 7 26 -18 18 7 -26 20 0 -12 -1 30 26 31 19 5
11 12 6 -0 9 4 5 -6 6 11 24 2 8 24 2 14 12 1 -0 12 19 -1 28 23 -7 0 -1 28 12 2 -7 -10 1 -19 20 13 -31 -20 -10 17 8 23 22 31 18
9 5 4 2 12 20 8 -5 7 7 14 31 4 4 1 11 22 -12 26 11 25 19 28 2 17 9 11 25 8 15 5 12 -10 4 -5 5 27 -26 -24 10 2 20 29 30 20
13 10 8 11 5 6 1 2 6 7 14 33 3 -0 0 12 19 3 5 19 10 10 34 47 30 12 -25 -12 8 16 27 15 4 11 -8 17 -10 -14 16 12 -5 4 17 22 21
13 16 14 9 2 4 -1 7 7 5 7 10 20 13 15 8 -1 10 11 19 5 8 11 12 13 16 18 20 11 26 -0 2 14 23 7 3 13 -22 3 -2 11 9 9 13 19
Height
3069 3067 3064 3062 3059 3058 3056 3054 3053 3052 3051 3050 3049 3050 3050 3049 3049 3049 3052 3053 3054 3054 3056 3058 3060 3064 3069 3071 3073 3077 3076 3077 3080 3086 3089 3092 3094 3095 3096 3098 3097 3101 3104 3107 3108
3065 3062 3059 3056 3053 3051 3049 3047 3046 3045 3044 3043 3043 3042 3042 3042 3042 3043 3046 3046 3049 3049 3052 3053 3056 3061 3062 3065 3067 3068 3067 3071 3078 3083 3086 3088 3092 3092 3094 3095 3096 3099 3102 3105 3104
3061 3057 3054 3051 3049 3045 3041 3039 3038 3037 3036 3035 3035 3036 3036 3033 3034 3038 3038 3040 3041 3044 3046 3049 3052 3055 3057 3059 3059 3060 3059 3069 3076 3080 3082 3084 3087 3089 3090 3092 3093 3097 3099 3103 3104
3057 3053 3049 3044 3040 3036 3033 3030 3028 3028 3026 3025 3025 3027 3027 3026 3026 3028 3031 3033 3034 3036 3039 3042 3044 3048 3049 3050 3054 3057 3059 3066 3071 3073 3076 3081 3083 3084 3086 3090 3091 3095 3097 3100 3103
3050 3045 3040 3035 3031 3027 3023 3020 3018 3017 3015 3015 3015 3015 3015 3013 3015 3025 3026 3027 3029 3030 3032 3034 3038 3042 3044 3047 3052 3051 3057 3062 3068 3070 3072 3075 3078 3079 3082 3085 3087 3090 3093 3096 3099
3044 3038 3032 3027 3022 3017 3013 3009 3007 3005 3003 3003 3003 3003 3001 2995 3010 3016 3016 3019 3023 3026 3027 3029 3030 3036 3041 3044 3046 3049 3055 3058 3061 3063 3066 3069 3073 3075 3079 3082 3083 3085 3089 3092 3096
3035 3030 3024 3017 3012 3007 3003 2999 2996 2994 2992 2990 2991 2988 2983 2980 2998 3001 3005 3009 3015 3017 3022 3025 3028 3031 3037 3040 3044 3047 3051 3054 3055 3058 3059 3064 3066 3066 3075 3077 3080 3082 3086 3088 3092
3027 3020 3014 3007 3002 2997 2992 2989 2985 2984 2981 2979 2978 2976 2964 2970 2985 2989 2994 3001 3005 3009 3015 3021 3023 3025 3028 3033 3037 3041 3046 3046 3048 3054 3056 3060 3055 3063 3070 3072 3074 3077 3081 3085 3087
3019 3012 3005 2999 2993 2988 2983 2979 2977 2975 2972 2970 2968 2968 2957 2963 2963 2980 2986 2991 2999 3002 3007 3013 3015 3017 3022 3027 3032 3034 3034 3038 3044 3049 3052 3053 3050 3058 3064 3067 3069 3071 3076 3080 3083
3011 3004 2997 2991 2987 2982 2977 2972 2970 2967 2965 2963 2961 2962 2957 2958 2961 2960 2972 2982 2990 2996 3000 3004 3007 3009 3012 3016 3014 3021 3028 3033 3036 3043 3045 3046 3046 3054 3058 3060 3063 3067 3070 3073 3076
3003 2997 2991 2987 2983 2978 2972 2966 2965 2963 2959 2959 2958 2952 2952 2954 2954 2957 2962 2970 2978 2984 2987 2991 2994 2993 2997 3007 3014 3021 3026 3031 3035 3038 3040 3039 3042 3047 3053 3053 3056 3060 3064 3067 3071
2997 2992 2987 2983 2979 2974 2969 2964 2961 2959 2951 2954 2950 2948 2947 2950 2946 2949 2953 2960 2966 2966 2978 2986 2982 2989 2999 3005 3011 3017 3022 3027 3031 3031 3034 3035 3035 3041 3046 3047 3049 3053 3057 3060 3065
2993 2988 2984 2979 2975 2971 2966 2962 2960 2956 2950 2940 2941 2940 2941 2941 2941 2943 2947 2948 2956 2964 2969 2973 2977 2986 2993 2997 3006 3012 3015 3020 3026 3026 3026 3029 3031 3032 3035 3039 3044 3046 3051 3054 3057
2990 2985 2980 2974 2973 2967 2964 2961 2958 2954 2948 2942 2939 2938 2938 2934 2932 2937 2939 2942 2949 2954 2964 2970 2977 2980 2987 2993 3000 3006 3011 3017 3022 3024 3025 3026 3023 3023 3028 3030 3032 3038 3042 3047 3050
2987 2981 2977 2970 2967 2965 2963 2959 2956 2954 2954 2945 2941 2938 2934 2932 2932 2934 2937 2941 2945 2946 2960 2961 2967 2974 2980 2983 2995 3000 3007 3014 3019 3020 3022 3022 3024 3013 3021 3020 3020 3025 3034 3039 3043
2983 2977 2973 2970 2965 2962 2960 2957 2955 2956 2951 2944 2941 2936 2933 2927 2929 2933 2934 2935 2937 2947 2955 2960 2967 2975 2977 2985 2992 2999 3005 3011 3014 3016 3015 3014 3018 3007 3009 3012 3015 3019 3024 3032 3036
2979 2974 2970 2966 2963 2961 2958 2957 2956 2953 2949 2944 2939 2935 2931 2927 2928 2931 2934 2934 2938 2944 2944 2956 2963 2968 2975 2982 2989 2994 3000 3007 3012 3010 3003 3007 3011 3003 3004 3007 3010 3014 3017 3023 3028
2977 2973 2969 2965 2962 2960 2957 2957 2954 2952 2948 2944 2940 2935 2931 2929 2927 2929 2933 2936 2936 2939 2941 2949 2959 2961 2967 2973 2975 2981 2989 2993 2996 3003 3000 3003 2999 2995 3000 3004 3005 3009 3013 3017 3021
2976 2972 2968 2964 2962 2960 2959 2956 2955 2953 2950 2943 2937 2934 2932 2929 2929 2930 2930 2931 2935 2934 2938 2946 2954 2959 2964 2970 2976 2980 2984 2990 2993 2994 2996 2995 2994 2996 2997 3000 3002 3005 3007 3010 3014
2976 2971 2967 2964 2962 2960 2958 2957 2955 2953 2949 2946 2942 2938 2935 2931 2929 2930 2932 2933 2934 2936 2939 2946 2952 2955 2961 2968 2972 2974 2980 2987 2990 2996 2993 2989 2990 2989 2989 2993 2996 2999 3002 3006 3010
2974 2969 2966 2963 2961 2960 2958 2956 2953 2952 2950 2947 2944 2941 2938 2935 2930 2928 2931 2933 2933 2937 2942 2944 2948 2956 2958 2961 2962 2969 2973 2979 2985 2988 2990 2992 2988 2985 2986 2987 2990 2995 2998 3001 3005
2973 2969 2966 2964 2963 2959 2958 2956 2953 2949 2948 2946 2944 2942 2940 2938 2932 2929 2929 2932 2935 2935 2938 2942 2944 2950 2954 2956 2962 2966 2970 2973 2981 2986 2987 2990 2988 2984 2984 2985 2987 2990 2994 2997 3000
2972 2969 2966 2964 2962 2960 2958 2956 2953 2949 2947 2945 2944 2944 2942 2940 2937 2934 2932 2929 2931 2934 2938 2941 2944 2948 2954 2958 2959 2963 2967 2971 2976 2981 2982 2988 2986 2984 2984 2986 2985 2986 2989 2992 2995
2971 2969 2967 2964 2962 2960 2957 2956 2953 2950 2947 2946 2945 2943 2942 2939 2939 2936 2935 2934 2931 2933 2936 2939 2943 2947 2950 2951 2955 2960 2965 2969 2975 2978 2980 2981 2982 2983 2984 2985 2985 2985 2985 2988 2992
2971 2969 2967 2965 2962 2960 2958 2956 2953 2949 2947 2944 2944 2944 2943 2941 2937 2936 2935 2934 2934 2934 2936 2939 2941 2947 2949 2952 2955 2959 2961 2965 2969 2975 2978 2979 2979 2982 2985 2986 2987 2986 2984 2986 2990
2971 2969 2967 2964 2962 2960 2959 2956 2953 2951 2948 2944 2943 2941 2941 2940 2940 2937 2935 2934 2935 2935 2935 2935 2938 2944 2948 2951 2954 2957 2960 2964 2967 2971 2973 2977 2976 2981 2984 2986 2987 2988 2988 2988 2990
2971 2968 2965 2964 2962 2961 2960 2956 2953 2950 2947 2945 2942 2940 2939 2939 2937 2936 2934 2932 2934 2935 2936 2936 2937 2943 2948 2951 2954 2956 2954 2957 2960 2964 2967 2969 2971 2976 2979 2981 2986 2988 2990 2990 2991